XNO924 LKPR-LIMC

Flight info

Callsign XNO924
Flight time 1h 13m
Altitude 30000
Route DOBEN DCT RUDAP/N0482F340 P31 DOSEL DCT EBEDA DCT BADVI DCT BERAS DCT OLPIX/N0485F330 DCT EKPEB DCT NAXAV DCT RENTA DCT ATPED DCT LUSIL DCT EVRIP
Aircraft MD11/H-SDE1E2E3FGHIJ2J3J4J5M1RWXY/LB1D1

Departure

Time 2026-05-04 11:20
Airport Václav Havel Airport Prague (LKPR)

Arrival

Time 2026-05-04 12:34
Airport Milan Malpensa International Airport (LIMC)
Time Latitude Longitude Altitude Speed Heading
2026-05-04 10:40 50.11299 14.27597 1211 ft 0 kts 155°
2026-05-04 11:05 50.11387 14.27610 1183 ft 0 kts 245°
2026-05-04 11:08 50.11275 14.27239 1181 ft 12 kts 245°
2026-05-04 11:10 50.11070 14.26225 1177 ft 20 kts 245°
2026-05-04 11:12 50.10552 14.25863 1178 ft 21 kts 122°
2026-05-04 11:12 50.10469 14.26041 1180 ft 20 kts 127°
2026-05-04 11:12 50.10383 14.26222 1181 ft 22 kts 126°
2026-05-04 11:12 50.10280 14.26433 1178 ft 26 kts 127°
2026-05-04 11:13 50.10165 14.26672 1178 ft 28 kts 127°
2026-05-04 11:13 50.10050 14.26909 1181 ft 26 kts 127°
2026-05-04 11:13 50.09944 14.27129 1176 ft 25 kts 127°
2026-05-04 11:13 50.09841 14.27330 1178 ft 23 kts 133°
2026-05-04 11:14 50.09727 14.27508 1178 ft 23 kts 135°
2026-05-04 11:14 50.09613 14.27684 1179 ft 23 kts 135°
2026-05-04 11:14 50.09495 14.27855 1182 ft 23 kts 134°
2026-05-04 11:16 50.09167 14.28271 1179 ft 0 kts 197°
2026-05-04 11:19 50.09105 14.28209 1178 ft 16 kts 217°
2026-05-04 11:19 50.09070 14.28145 1178 ft 2 kts 263°
2026-05-04 11:19 50.09076 14.28112 1178 ft 7 kts 293°
2026-05-04 11:19 50.09085 14.28090 1178 ft 0 kts 303°
2026-05-04 11:20 50.09172 14.27904 1179 ft 69 kts 308°
2026-05-04 11:20 50.09673 14.26876 1185 ft 165 kts 307°
2026-05-04 11:20 50.10419 14.25254 1820 ft 186 kts 305°
2026-05-04 11:20 50.11140 14.23584 3079 ft 188 kts 304°
2026-05-04 11:22 50.17590 14.08065 5296 ft 263 kts 279°
2026-05-04 11:22 50.17552 14.05265 5265 ft 260 kts 254°
2026-05-04 11:23 50.16709 14.02789 5269 ft 261 kts 229°
2026-05-04 11:23 50.15359 14.00882 5273 ft 263 kts 219°
2026-05-04 11:24 50.05246 13.95527 8763 ft 276 kts 172°
2026-05-04 11:25 50.03354 13.96103 9369 ft 278 kts 172°
2026-05-04 11:25 50.01449 13.96549 9922 ft 277 kts 178°
2026-05-04 11:25 49.99511 13.96519 10183 ft 286 kts 189°
2026-05-04 11:26 49.95534 13.94227 10511 ft 334 kts 215°
2026-05-04 11:27 49.85114 13.72966 16432 ft 372 kts 234°
2026-05-04 11:28 49.83601 13.69672 17246 ft 378 kts 234°
2026-05-04 11:28 49.82065 13.66345 18031 ft 382 kts 233°
2026-05-04 11:28 49.80504 13.62974 18773 ft 387 kts 233°
2026-05-04 11:28 49.79225 13.60270 19337 ft 390 kts 231°
2026-05-04 11:29 49.77908 13.57925 19868 ft 393 kts 224°
2026-05-04 11:29 49.76064 13.55634 20469 ft 396 kts 212°
2026-05-04 11:29 49.73589 13.53726 21108 ft 402 kts 202°
2026-05-04 11:29 49.70945 13.52228 21774 ft 407 kts 199°
2026-05-04 11:31 49.51578 13.41831 25988 ft 433 kts 201°
2026-05-04 11:33 49.31164 13.30437 29449 ft 458 kts 201°
2026-05-04 11:33 49.28163 13.28772 29861 ft 460 kts 201°
2026-05-04 11:33 49.25135 13.27089 29977 ft 464 kts 202°
2026-05-04 11:34 49.19264 13.23141 30132 ft 467 kts 207°
2026-05-04 11:34 49.16346 13.20932 30547 ft 468 kts 208°
2026-05-04 11:34 49.13435 13.18699 31055 ft 467 kts 208°
2026-05-04 11:35 49.10577 13.16516 31589 ft 465 kts 208°
2026-05-04 11:35 49.07687 13.14326 32110 ft 463 kts 208°
2026-05-04 11:35 49.04784 13.12143 32641 ft 461 kts 208°
2026-05-04 11:35 49.01902 13.09985 33037 ft 461 kts 208°
2026-05-04 11:36 48.99029 13.07840 33441 ft 459 kts 208°
2026-05-04 11:36 48.96161 13.05704 33843 ft 457 kts 208°
2026-05-04 11:36 48.93305 13.03581 33968 ft 457 kts 208°
2026-05-04 11:36 48.90453 13.01461 33989 ft 456 kts 208°
2026-05-04 11:37 48.84784 12.97258 33988 ft 453 kts 208°
2026-05-04 11:37 48.79118 12.93066 33990 ft 453 kts 208°
2026-05-04 11:38 48.73531 12.88803 33989 ft 452 kts 213°
2026-05-04 11:38 48.68616 12.82947 33995 ft 449 kts 224°
2026-05-04 11:39 48.64106 12.76438 33996 ft 448 kts 225°
2026-05-04 11:41 48.48128 12.54042 33994 ft 448 kts 224°
2026-05-04 11:41 48.43510 12.47718 33994 ft 449 kts 223°
2026-05-04 11:42 48.38776 12.41585 33991 ft 449 kts 221°
2026-05-04 11:42 48.34011 12.35518 33992 ft 449 kts 221°
2026-05-04 11:43 48.29252 12.29457 33995 ft 449 kts 221°
2026-05-04 11:43 48.24493 12.23395 33998 ft 449 kts 221°
2026-05-04 11:44 48.19741 12.17352 33991 ft 449 kts 221°
2026-05-04 11:44 48.14630 12.12032 33993 ft 452 kts 207°
2026-05-04 11:45 48.08628 12.09100 33983 ft 456 kts 196°
2026-05-04 11:45 48.02462 12.06829 33986 ft 457 kts 197°
2026-05-04 11:46 47.97353 12.04818 33978 ft 456 kts 197°
2026-05-04 11:46 47.91251 12.02274 33976 ft 455 kts 198°
2026-05-04 11:47 47.85169 11.99690 33974 ft 455 kts 198°
2026-05-04 11:47 47.79090 11.97113 33971 ft 455 kts 198°
2026-05-04 11:48 47.73011 11.94520 33963 ft 455 kts 198°
2026-05-04 11:48 47.66977 11.91715 33965 ft 454 kts 200°
2026-05-04 11:49 47.60970 11.88834 33964 ft 454 kts 200°
2026-05-04 11:49 47.54946 11.85956 33962 ft 455 kts 199°
2026-05-04 11:50 47.48910 11.83090 33964 ft 456 kts 199°
2026-05-04 11:50 47.42873 11.80236 33980 ft 455 kts 199°
2026-05-04 11:51 47.36820 11.77438 33977 ft 456 kts 196°
2026-05-04 11:51 47.30588 11.75610 33989 ft 458 kts 190°
2026-05-04 11:52 47.24283 11.74232 34002 ft 458 kts 190°
2026-05-04 11:52 47.17973 11.72837 34005 ft 458 kts 191°
2026-05-04 11:53 47.11698 11.71396 34013 ft 455 kts 191°
2026-05-04 11:53 47.05492 11.69951 34012 ft 454 kts 191°
2026-05-04 11:55 46.82352 11.56162 33043 ft 453 kts 205°
2026-05-04 11:56 46.76651 11.52333 33053 ft 454 kts 205°
2026-05-04 11:56 46.70903 11.48503 33053 ft 455 kts 205°
2026-05-04 11:57 46.65147 11.44680 33052 ft 454 kts 205°
2026-05-04 11:57 46.59403 11.40867 33048 ft 454 kts 205°
2026-05-04 11:58 46.53660 11.37054 33051 ft 454 kts 205°
2026-05-04 11:58 46.48200 11.32520 33047 ft 453 kts 218°
2026-05-04 11:59 46.43959 11.25807 33051 ft 454 kts 237°
2026-05-04 11:59 46.41030 11.17682 33076 ft 456 kts 244°
2026-05-04 11:59 46.39698 11.13515 33239 ft 456 kts 244°
2026-05-04 12:00 46.38357 11.09355 33251 ft 456 kts 243°
2026-05-04 12:00 46.35604 11.01095 33236 ft 455 kts 243°
2026-05-04 12:01 46.32786 10.92886 33219 ft 455 kts 242°
2026-05-04 12:02 46.22838 10.64313 33138 ft 454 kts 242°
2026-05-04 12:03 46.19995 10.56174 33141 ft 454 kts 242°
2026-05-04 12:03 46.17143 10.48032 33099 ft 455 kts 242°
2026-05-04 12:04 46.14277 10.39903 32906 ft 455 kts 242°
2026-05-04 12:04 46.12855 10.35891 32655 ft 455 kts 241°
2026-05-04 12:04 46.11396 10.31776 32258 ft 455 kts 242°
2026-05-04 12:05 46.09974 10.27763 31779 ft 455 kts 241°
2026-05-04 12:05 46.08536 10.23705 31268 ft 456 kts 241°
2026-05-04 12:05 46.07091 10.19633 30746 ft 457 kts 241°
2026-05-04 12:05 46.05641 10.15549 30206 ft 458 kts 241°
2026-05-04 12:06 46.04197 10.11455 29584 ft 460 kts 242°
2026-05-04 12:06 46.02778 10.07320 28980 ft 462 kts 242°
2026-05-04 12:06 46.01373 10.03162 28396 ft 464 kts 243°
2026-05-04 12:06 45.99966 9.98971 27795 ft 465 kts 243°
2026-05-04 12:07 45.98560 9.94780 27219 ft 466 kts 243°
2026-05-04 12:07 45.97156 9.90600 26641 ft 462 kts 243°
2026-05-04 12:07 45.95762 9.86460 26055 ft 458 kts 243°
2026-05-04 12:07 45.94378 9.82359 25477 ft 453 kts 243°
2026-05-04 12:08 45.93005 9.78299 24917 ft 449 kts 243°
2026-05-04 12:08 45.91649 9.74295 24364 ft 444 kts 242°
2026-05-04 12:08 45.90301 9.70325 23790 ft 440 kts 243°
2026-05-04 12:08 45.88967 9.66399 23178 ft 435 kts 242°
2026-05-04 12:09 45.87648 9.62525 22589 ft 430 kts 242°
2026-05-04 12:09 45.86339 9.58686 22057 ft 426 kts 242°
2026-05-04 12:09 45.85036 9.54883 21505 ft 422 kts 242°
2026-05-04 12:09 45.83741 9.51128 21055 ft 417 kts 242°
2026-05-04 12:10 45.82464 9.47430 20795 ft 413 kts 242°
2026-05-04 12:10 45.81223 9.43828 20681 ft 392 kts 242°
2026-05-04 12:10 45.80063 9.40447 20566 ft 367 kts 242°
2026-05-04 12:10 45.78977 9.37278 20451 ft 342 kts 242°
2026-05-04 12:11 45.77956 9.34302 20308 ft 328 kts 242°
2026-05-04 12:11 45.76954 9.31392 20012 ft 324 kts 241°
2026-05-04 12:11 45.75953 9.28503 19517 ft 323 kts 241°
2026-05-04 12:11 45.74957 9.25635 18973 ft 319 kts 241°
2026-05-04 12:12 45.73977 9.22807 18453 ft 317 kts 241°
2026-05-04 12:12 45.73001 9.19994 17871 ft 314 kts 241°
2026-05-04 12:12 45.72035 9.17211 17335 ft 311 kts 241°
2026-05-04 12:12 45.71078 9.14455 16826 ft 308 kts 241°
2026-05-04 12:13 45.70130 9.11728 16309 ft 305 kts 241°
2026-05-04 12:14 45.63739 8.93450 13170 ft 288 kts 241°
2026-05-04 12:15 45.62750 8.90983 13065 ft 286 kts 231°
2026-05-04 12:15 45.61286 8.89115 12987 ft 284 kts 207°
2026-05-04 12:15 45.59388 8.88427 12922 ft 285 kts 181°
2026-05-04 12:15 45.57402 8.88714 12851 ft 289 kts 172°
2026-05-04 12:16 45.55429 8.89271 12799 ft 289 kts 170°
2026-05-04 12:16 45.53463 8.89868 12735 ft 285 kts 170°
2026-05-04 12:16 45.51608 8.90425 12651 ft 267 kts 170°
2026-05-04 12:16 45.49790 8.90954 12419 ft 264 kts 170°
2026-05-04 12:17 45.47993 8.91464 11978 ft 262 kts 170°
2026-05-04 12:17 45.46215 8.91961 11533 ft 259 kts 170°
2026-05-04 12:17 45.44452 8.92449 11101 ft 257 kts 170°
2026-05-04 12:17 45.42708 8.92929 10675 ft 254 kts 170°
2026-05-04 12:18 45.40984 8.93401 10280 ft 251 kts 169°
2026-05-04 12:18 45.39272 8.93868 10105 ft 249 kts 169°
2026-05-04 12:18 45.37572 8.94330 10009 ft 248 kts 169°
2026-05-04 12:18 45.35888 8.94788 9950 ft 246 kts 169°
2026-05-04 12:19 45.34211 8.95243 9889 ft 245 kts 169°
2026-05-04 12:19 45.32530 8.95698 9828 ft 246 kts 169°
2026-05-04 12:19 45.30854 8.96152 9759 ft 245 kts 170°
2026-05-04 12:19 45.29199 8.96156 9647 ft 235 kts 194°
2026-05-04 12:20 45.27789 8.95015 9586 ft 238 kts 222°
2026-05-04 12:20 45.26955 8.92968 9526 ft 246 kts 251°
2026-05-04 12:20 45.26929 8.90516 9446 ft 256 kts 279°
2026-05-04 12:20 45.27745 8.88259 9398 ft 262 kts 307°
2026-05-04 12:21 45.29034 8.86402 9364 ft 265 kts 314°
2026-05-04 12:21 45.30377 8.84621 9286 ft 264 kts 314°
2026-05-04 12:21 45.31725 8.82838 9233 ft 264 kts 314°
2026-05-04 12:21 45.33066 8.81061 9172 ft 264 kts 314°
2026-05-04 12:22 45.34380 8.79242 9115 ft 263 kts 313°
2026-05-04 12:22 45.35859 8.77713 9073 ft 267 kts 333°
2026-05-04 12:22 45.37629 8.76929 9020 ft 267 kts 345°
2026-05-04 12:22 45.39429 8.76282 8954 ft 267 kts 343°
2026-05-04 12:23 45.41198 8.75492 8891 ft 266 kts 339°
2026-05-04 12:23 45.42926 8.74563 8823 ft 265 kts 336°
2026-05-04 12:23 45.44584 8.73556 8781 ft 248 kts 334°
2026-05-04 12:23 45.46126 8.72544 8728 ft 253 kts 332°
2026-05-04 12:24 45.47744 8.71421 8699 ft 261 kts 332°
2026-05-04 12:24 45.49367 8.70258 8637 ft 262 kts 331°
2026-05-04 12:24 45.50964 8.69087 8569 ft 261 kts 330°
2026-05-04 12:24 45.52575 8.67885 8503 ft 261 kts 330°
2026-05-04 12:25 45.54177 8.66677 8450 ft 260 kts 330°
2026-05-04 12:25 45.55772 8.65465 8385 ft 258 kts 330°
2026-05-04 12:25 45.57316 8.64287 8303 ft 249 kts 330°
2026-05-04 12:25 45.58837 8.63121 8222 ft 248 kts 330°
2026-05-04 12:26 45.60351 8.61956 8037 ft 247 kts 330°
2026-05-04 12:26 45.61869 8.60816 7860 ft 247 kts 335°
2026-05-04 12:26 45.63510 8.60083 7772 ft 248 kts 346°
2026-05-04 12:26 45.65190 8.59559 7599 ft 246 kts 347°
2026-05-04 12:27 45.66865 8.59077 7401 ft 245 kts 348°
2026-05-04 12:27 45.68528 8.58605 7071 ft 242 kts 348°
2026-05-04 12:27 45.70170 8.58142 6704 ft 238 kts 348°
2026-05-04 12:27 45.71760 8.57695 6295 ft 226 kts 348°
2026-05-04 12:28 45.73290 8.57265 5953 ft 226 kts 348°
2026-05-04 12:28 45.74828 8.56887 5623 ft 223 kts 355°
2026-05-04 12:28 45.76352 8.57196 5305 ft 223 kts 24°
2026-05-04 12:28 45.77469 8.58627 4962 ft 217 kts 61°
2026-05-04 12:29 45.77965 8.60651 4633 ft 216 kts 76°
2026-05-04 12:29 45.78295 8.62728 4268 ft 209 kts 78°
2026-05-04 12:29 45.78580 8.64666 4035 ft 190 kts 78°
2026-05-04 12:29 45.78710 8.66556 3904 ft 191 kts 96°
2026-05-04 12:30 45.78171 8.68224 3542 ft 185 kts 139°
2026-05-04 12:30 45.77097 8.68988 3256 ft 165 kts 166°
2026-05-04 12:30 45.75997 8.69400 3035 ft 161 kts 168°
2026-05-04 12:30 45.74920 8.69779 2747 ft 157 kts 169°
2026-05-04 12:31 45.73859 8.70164 2578 ft 158 kts 165°
2026-05-04 12:31 45.72797 8.70627 2508 ft 158 kts 167°
2026-05-04 12:31 45.71764 8.70957 2363 ft 149 kts 172°
2026-05-04 12:31 45.70757 8.71220 2146 ft 146 kts 172°
2026-05-04 12:32 45.69748 8.71499 1938 ft 149 kts 171°
2026-05-04 12:32 45.67728 8.72041 1483 ft 149 kts 171°
2026-05-04 12:32 45.67055 8.72248 1426 ft 149 kts 171°
2026-05-04 12:33 45.66055 8.72525 1176 ft 143 kts 171°
2026-05-04 12:33 45.65069 8.72785 954 ft 147 kts 170°
2026-05-04 12:33 45.64056 8.73072 805 ft 148 kts 171°
2026-05-04 12:33 45.63094 8.73326 740 ft 123 kts 170°
2026-05-04 12:34 45.62413 8.73517 733 ft 79 kts 169°
2026-05-04 12:34 45.61975 8.73639 722 ft 56 kts 169°
2026-05-04 12:34 45.61681 8.73716 717 ft 25 kts 170°
2026-05-04 12:34 45.61604 8.73697 715 ft 5 kts 234°
2026-05-04 12:35 45.61589 8.73584 712 ft 16 kts 273°
2026-05-04 12:35 45.61625 8.73448 718 ft 13 kts 293°
2026-05-04 12:35 45.61625 8.73331 716 ft 11 kts 262°
2026-05-04 12:35 45.61599 8.73240 721 ft 8 kts 225°
2026-05-04 12:36 45.61549 8.73231 718 ft 9 kts 173°
2026-05-04 12:36 45.61466 8.73255 717 ft 14 kts 169°
2026-05-04 12:36 45.61368 8.73282 715 ft 15 kts 169°
2026-05-04 12:36 45.61260 8.73311 715 ft 17 kts 169°
2026-05-04 12:37 45.61137 8.73346 714 ft 18 kts 168°
2026-05-04 12:37 45.61014 8.73382 716 ft 18 kts 168°
2026-05-04 12:37 45.60898 8.73409 714 ft 16 kts 183°
2026-05-04 12:37 45.60796 8.73368 716 ft 15 kts 202°
2026-05-04 12:38 45.60698 8.73312 715 ft 15 kts 201°
2026-05-04 12:38 45.60613 8.73235 715 ft 14 kts 232°
2026-05-04 12:38 45.60594 8.73103 715 ft 14 kts 273°
2026-05-04 12:38 45.60603 8.72959 714 ft 16 kts 276°
2026-05-04 12:39 45.60616 8.72770 711 ft 21 kts 275°
2026-05-04 12:39 45.60632 8.72566 714 ft 20 kts 276°
2026-05-04 12:39 45.60678 8.72398 716 ft 18 kts 321°
2026-05-04 12:39 45.60798 8.72342 715 ft 19 kts 348°
2026-05-04 12:40 45.60939 8.72303 713 ft 22 kts 349°
2026-05-04 12:40 45.61086 8.72261 717 ft 21 kts 348°
2026-05-04 12:40 45.61221 8.72224 715 ft 19 kts 349°
2026-05-04 12:40 45.61331 8.72195 721 ft 8 kts 349°
2026-05-04 12:41 45.61354 8.72181 721 ft 3 kts 333°
2026-05-04 12:41 45.61360 8.72174 723 ft 1 kts 320°
2026-05-04 12:41 45.61362 8.72166 723 ft 1 kts 296°
2026-05-04 12:41 45.61364 8.72105 721 ft 8 kts 261°
2026-05-04 12:42 45.61357 8.72046 722 ft 0 kts 260°